Location: Gälforsberget
(66.6500°N, 22.4167°E)
Time: 06:33:11
(UTC+00:00)

SL-16 R/B - Pass Details

Date: 11 April 2026
Orbit: 839 x 849 km, 71.0° (Epoch: 10 May)

Event Time Altitude Azimuth Distance (km) Brightness Sun altitude
Exits shadow 23:39:43 11° 239° (WSW) 2,431 4.2 -13.7°
Maximum altitude 23:45:18 83° 327° (NNW) 861 2.3 -13.5°
Drops below altitude 10° 23:51:02 10° 57° (ENE) 2,483 5.5 -13.4°
Sets 23:53:29 0° 58° (ENE) 3,421 6.3 -13.3°
